Location: Chuathbaluk
(61.5726°N, 159.2454°W)
Time: 23:37:11
(UTC+00:00)

Transit 2A - Pass Details

Date: 01 December 2020
Orbit: 598 x 960 km, 66.7° (Epoch: 20 January)

Event Time Altitude Azimuth Distance (km) Brightness Sun altitude
Rises 11:14:22 0° 308° (NW) 3,415 - -49.5°
Reaches altitude 10° 11:16:59 10° 304° (NW) 2,420 - -49.4°
Maximum altitude 11:22:22 55° 229° (SW) 913 - -49.2°
Drops below altitude 10° 11:27:12 10° 152° (SSE) 2,171 - -49.0°
Sets 11:29:27 0° 148° (SSE) 3,035 - -48.9°
